FW0288 Weather Reports


time (UTC)temp
F
wind
direction
speed
knots
gust
knots
rain 1hr
in
rain 24hr
in
rain mn
in
humidity
%
barometer
mb
20260506120030 30 360 0.0 0.0 0.00 0.13 0.00 94 1019.1
20260506114536 30 360 0.0 0.0 0.00 0.14 0.00 93 1019.2
20260506113027 30 360 0.0 0.0 0.00 0.14 0.00 93 1019.0
20260506111525 30 360 0.0 0.0 0.00 0.14 0.00 93 1018.8
20260506110024 30 326 0.0 0.0 0.00 0.14 0.00 94 1018.5
20260506104522 30 326 0.0 0.0 0.00 0.16 0.00 93 1018.4
20260506103023 30 325 0.0 0.0 0.00 0.16 0.00 94 1018.4
20260506101520 30 326 0.0 0.0 0.00 0.16 0.00 93 1018.4
20260506100120 30 360 0.0 0.0 0.00 0.16 0.00 93 1018.5
20260506094519 30 325 0.0 0.0 0.00 0.23 0.00 93 1018.7
20260506093016 30 327 0.0 0.0 0.00 0.23 0.00 93 1018.3
20260506091518 30 360 0.0 0.0 0.00 0.23 0.00 93 1018.2
20260506084511 31 360 0.0 0.0 0.00 0.24 0.00 93 1018.1
20260506083010 31 360 0.0 0.0 0.00 0.24 0.00 93 1018.1
20260506081511 31 308 0.0 0.0 0.00 0.24 0.00 93 1017.9
20260506073005 31 311 0.0 0.0 0.00 0.24 0.00 93 1017.9
20260506071502 31 360 0.0 0.0 0.00 0.24 0.00 93 1017.8
20260506061556 32 310 0.0 0.0 0.00 0.24 0.00 93 1017.1
20260506044549 32 312 0.0 0.0 0.00 0.24 0.24 93 1016.1
20260506043048 32 312 0.0 0.0 0.01 0.24 0.24 93 1016.2
20260506041553 31 312 0.0 0.0 0.01 0.24 0.24 93 1016.3
20260506040044 32 312 0.0 0.0 0.01 0.24 0.24 93 1015.8
20260506034544 32 312 0.0 0.0 0.01 0.31 0.24 93 1015.9
20260506033042 32 312 0.0 0.0 0.00 0.30 0.23 93 1015.7
20260506031540 32 312 0.0 1.7 0.00 0.30 0.23 93 1015.4
20260506030056 32 302 0.0 1.7 0.00 0.30 0.23 93 1014.8
20260506024549 32 301 0.0 0.9 0.00 0.37 0.23 93 1014.6
20260506023034 32 302 0.0 1.7 0.00 0.37 0.23 93 1014.1
20260506021532 32 300 0.0 0.9 0.00 0.37 0.23 93 1013.9
20260506020029 32 299 0.0 2.6 0.00 0.37 0.23 93 1013.4
20260506014528 32 360 0.0 2.6 0.00 0.37 0.23 92 1013.2
20260506013026 32 300 0.0 1.7 0.00 0.37 0.23 92 1012.8
20260506011533 32 288 0.0 3.5 0.00 0.37 0.23 93 1012.8
20260506010023 32 299 0.0 1.7 0.00 0.37 0.23 93 1012.5
20260506004540 32 298 0.0 3.5 0.00 0.37 0.23 92 1012.4
20260506003028 32 298 0.0 0.0 0.00 0.37 0.23 92 1012.3
20260506001522 32 303 0.0 0.0 0.00 0.37 0.23 92 1012.3
20260506000022 32 298 0.0 0.0 0.00 0.37 0.23 92 1012.0
20260505234516 32 297 0.0 0.0 0.00 0.37 0.23 92 1011.8
20260505233014 32 360 0.0 0.9 0.00 0.37 0.23 92 1011.2
20260505231520 32 316 0.0 1.7 0.00 0.37 0.23 92 1011.4
20260505230014 32 302 0.0 1.7 0.00 0.37 0.23 92 1011.3
20260505224511 32 290 0.0 1.7 0.00 0.37 0.23 92 1011.4
20260505223008 32 279 0.0 1.7 0.00 0.37 0.23 91 1010.9
20260505221506 33 360 0.0 1.7 0.00 0.37 0.23 92 1010.1
20260505220008 34 291 0.0 2.6 0.01 0.37 0.23 92 1010.3
20260505214504 34 360 0.0 2.6 0.01 0.37 0.23 92 1009.8
20260505213007 34 29 0.0 2.6 0.03 0.37 0.23 92 1009.6
20260505211503 34 355 0.0 3.5 0.03 0.37 0.23 91 1009.8
20260505210003 37 55 0.9 3.5 0.02 0.36 0.22 92 1009.3
20260505204502 37 12 0.0 0.9 0.02 0.36 0.22 91 1009.6
20260505203009 37 12 0.0 2.6 0.00 0.34 0.20 92 1009.7
20260505201503 37 42 0.0 1.7 0.00 0.34 0.20 92 1009.9
20260505200100 37 360 0.0 1.7 0.00 0.34 0.20 92 1010.0
20260505194601 37 9 0.0 1.7 0.00 0.34 0.20 92 1009.7
20260505193125 37 16 0.0 0.9 0.01 0.34 0.20 92 1009.7
20260505191606 37 28 0.0 1.7 0.01 0.34 0.20 92 1009.3
20260505190056 37 13 0.0 0.9 0.01 0.34 0.20 92 1009.2
20260505184601 38 40 0.0 2.6 0.01 0.34 0.20 93 1009.2
20260505183054 37 310 0.0 0.9 0.00 0.33 0.19 92 1009.5
20260505181553 37 5 0.0 0.0 0.00 0.33 0.19 92 1009.6
20260505180053 37 5 0.0 0.9 0.00 0.33 0.19 93 1009.5
20260505174549 36 15 0.0 0.9 0.01 0.33 0.19 92 1009.5
20260505173047 36 15 0.0 2.6 0.01 0.33 0.19 92 1009.8
20260505171549 36 355 0.0 0.9 0.01 0.33 0.19 92 1010.0
20260505170045 36 355 0.0 0.9 0.01 0.33 0.19 92 1009.6
20260505164545 36 355 0.0 0.0 0.00 0.32 0.18 92 1009.7
20260505163044 36 355 0.0 0.9 0.00 0.32 0.18 93 1009.6
20260505161544 35 355 0.0 2.6 0.01 0.32 0.18 92 1009.7
20260505153044 34 360 0.0 2.6 0.03 0.32 0.18 92 1009.6
20260505151538 34 360 0.0 0.9 0.03 0.31 0.17 92 1009.6
20260505124512 33 287 0.0 0.9 0.00 0.25 0.11 91 1008.2
20260505123009 33 279 0.0 1.7 0.01 0.25 0.11 91 1007.9
20260505121506 33 295 0.0 0.9 0.01 0.25 0.11 91 1007.8